TimeAKST,TemperatureF,Dew PointF,Humidity,Sea Level PressureIn,VisibilityMPH,Wind Direction,Wind SpeedMPH,Gust SpeedMPH,PrecipitationIn,Events,Conditions,WindDirDegrees,DateUTC
12:53 AM,-33.0,-9999,N/A,30.10,10.0,Calm,Calm,-,N/A,,Scattered Clouds,0,2012-12-03 09:53:00
1:53 AM,-34.1,-9999,N/A,30.11,10.0,Calm,Calm,-,N/A,,Scattered Clouds,0,2012-12-03 10:53:00
3:53 AM,-36.9,-9999,N/A,30.12,10.0,Calm,Calm,-,N/A,,Scattered Clouds,0,2012-12-03 12:53:00
4:53 AM,-36.9,-9999,N/A,30.14,10.0,Calm,Calm,-,N/A,,Scattered Clouds,0,2012-12-03 13:53:00
5:53 AM,-36.9,-9999,N/A,30.13,10.0,NNE,3.5,-,N/A,,Scattered Clouds,30,2012-12-03 14:53:00
6:53 AM,-36.9,-9999,N/A,30.15,6.0,Calm,Calm,-,N/A,,Scattered Clouds,0,2012-12-03 15:53:00
7:53 AM,-36.9,-9999,N/A,30.15,6.0,Calm,Calm,-,N/A,,Scattered Clouds,0,2012-12-03 16:53:00
8:53 AM,-38.0,-9999,N/A,30.16,7.0,NE,3.5,-,N/A,,Scattered Clouds,40,2012-12-03 17:53:00
9:53 AM,-36.9,-9999,N/A,30.16,6.0,Calm,Calm,-,N/A,,Scattered Clouds,0,2012-12-03 18:53:00
10:53 AM,-36.9,-9999,N/A,30.17,6.0,Calm,Calm,-,N/A,,Partly Cloudy,0,2012-12-03 19:53:00
11:53 AM,-35.0,-9999,N/A,30.16,7.0,Calm,Calm,-,N/A,,Partly Cloudy,0,2012-12-03 20:53:00
12:53 PM,-34.1,-9999,N/A,30.16,10.0,Calm,Calm,-,N/A,,Partly Cloudy,0,2012-12-03 21:53:00
1:53 PM,-33.0,-9999,N/A,30.16,10.0,Calm,Calm,-,N/A,,Partly Cloudy,0,2012-12-03 22:53:00
2:53 PM,-33.0,-9999,N/A,30.17,10.0,Calm,Calm,-,N/A,,Scattered Clouds,0,2012-12-03 23:53:00
3:53 PM,-35.0,-9999,N/A,30.17,10.0,Calm,Calm,-,N/A,,Scattered Clouds,0,2012-12-04 00:53:00
4:53 PM,-36.0,-9999,N/A,30.16,10.0,Calm,Calm,-,N/A,,Scattered Clouds,0,2012-12-04 01:53:00
5:53 PM,-36.0,-9999,N/A,30.17,10.0,Calm,Calm,-,N/A,,Scattered Clouds,0,2012-12-04 02:53:00
6:53 PM,-38.0,-9999,N/A,30.16,6.0,Calm,Calm,-,N/A,,Scattered Clouds,0,2012-12-04 03:53:00
7:53 PM,-36.9,-9999,N/A,30.17,6.0,Calm,Calm,-,N/A,,Partly Cloudy,0,2012-12-04 04:53:00
8:53 PM,-36.0,-9999,N/A,30.16,6.0,Calm,Calm,-,N/A,,Scattered Clouds,0,2012-12-04 05:53:00
9:53 PM,-34.1,-9999,N/A,30.15,4.0,Calm,Calm,-,N/A,,Scattered Clouds,0,2012-12-04 06:53:00
10:53 PM,-31.0,-9999,N/A,30.14,6.0,Calm,Calm,-,N/A,,Mostly Cloudy,0,2012-12-04 07:53:00
11:53 PM,-29.9,-9999,N/A,30.14,8.0,Calm,Calm,-,N/A,Snow,Light Snow,0,2012-12-04 08:53:00